Theta_e
310 310 311 311 312 313 313 314 314 314 314 315 315 315 313 312 310 307 305 303 300 296 294 293 295 297 300 302 303 304 303 301 299 296 293 292 292 291 291 290 290 290
308 309 309 309 311 312 312 312 312 312 313 314 314 314 313 312 310 306 303 300 296 293 293 293 293 295 297 299 299 299 298 295 293 292 291 291 291 291 290 290 289 289
307 308 308 309 310 311 311 310 310 311 312 313 313 312 312 311 310 307 303 298 293 292 292 292 292 293 293 293 294 293 292 291 291 291 291 291 291 290 289 289 289 288
306 307 308 309 310 310 310 310 309 309 310 311 311 312 310 310 309 307 304 297 292 291 291 291 291 291 291 291 291 291 291 291 291 291 291 290 290 290 289 289 288 288
306 307 308 309 309 308 309 309 309 309 310 310 311 310 309 308 307 307 304 297 291 291 291 290 291 290 291 291 290 291 291 291 291 290 290 290 289 289 289 288 288 288
305 307 308 308 308 308 308 308 309 309 309 309 310 309 308 306 305 306 304 297 291 290 290 290 290 290 290 290 290 291 291 291 290 290 289 289 289 288 288 288 288 288
304 306 307 308 307 307 307 307 308 308 308 308 308 306 305 304 303 304 302 296 290 289 290 289 290 290 290 290 290 290 290 290 290 289 289 289 289 288 288 288 288 288
304 305 306 306 305 305 306 306 307 307 307 307 305 303 303 302 301 302 300 293 289 289 289 289 289 289 289 289 290 290 290 289 289 289 289 289 289 288 288 288 288 288
302 303 304 303 304 304 305 306 306 306 305 305 304 301 300 300 299 300 297 291 288 289 289 289 289 289 289 289 289 290 290 289 289 289 289 289 289 289 288 288 288 287
300 301 302 302 302 302 304 305 305 305 304 303 302 299 298 297 296 296 294 290 288 288 288 288 288 288 288 289 289 289 289 289 289 289 289 289 288 288 288 288 288 288
300 300 301 301 301 301 302 303 303 303 302 301 299 297 295 294 293 292 291 288 288 288 288 288 288 288 288 288 288 289 289 289 289 289 288 288 288 288 288 288 288 287
298 299 300 300 300 300 301 301 300 299 299 298 297 295 293 292 291 289 288 288 288 288 288 288 288 288 288 288 288 288 288 288 288 288 288 288 287 287 287 287 287 287
297 299 301 300 299 299 299 299 299 298 298 296 294 292 291 290 289 287 287 287 287 288 287 288 287 287 287 288 288 288 288 288 288 288 288 287 287 287 287 287 287 287
297 299 301 300 299 298 298 297 297 296 295 294 292 289 288 288 288 287 287 287 287 287 287 287 287 287 287 287 288 288 288 288 288 288 287 287 287 287 287 287 287 287
296 298 300 299 297 296 296 295 295 294 292 290 289 288 287 287 287 287 286 286 286 286 287 287 287 287 287 287 287 287 288 288 288 287 287 287 287 287 287 287 287 287
295 296 298 298 296 294 294 293 292 291 289 288 287 286 286 286 286 286 286 286 286 286 286 286 286 286 287 287 287 287 288 288 287 287 287 287 287 287 287 287 287 287
294 295 295 297 296 294 292 291 290 289 288 287 286 285 285 285 285 285 285 285 285 285 285 285 286 286 286 286 287 287 288 288 288 287 287 287 287 287 287 287 287 287
294 293 293 294 294 292 290 289 288 287 286 286 285 285 284 284 285 285 285 285 285 285 285 285 285 286 286 286 286 287 287 287 288 287 287 287 287 287 287 287 287 287
293 292 291 291 291 290 289 288 287 287 286 286 286 285 285 284 285 285 284 284 284 284 284 285 285 285 285 286 286 286 287 287 288 287 287 287 287 287 287 287 287 287
291 291 290 289 289 289 288 288 287 286 286 286 285 284 284 284 284 284 284 284 284 284 284 284 285 285 285 285 286 286 287 287 287 287 286 287 287 287 288 287 287 286
290 290 289 289 288 288 287 287 286 285 285 285 285 284 284 284 284 284 284 284 284 284 284 284 284 285 285 285 285 286 287 287 287 287 287 288 288 288 287 287 287 286
290 289 289 288 288 287 286 285 285 285 285 284 284 283 283 283 283 283 283 283 283 283 283 284 284 284 284 284 285 286 287 287 287 287 288 288 288 288 287 287 286 286
290 289 289 288 287 287 286 285 285 285 284 284 284 283 283 283 283 283 283 283 283 283 283 284 284 284 284 285 287 287 286 286 286 287 287 288 288 287 287 287 286 286
289 289 289 288 288 287 287 286 286 285 285 284 284 284 283 283 283 283 283 283 283 283 283 283 283 284 285 287 288 287 286 285 286 287 287 287 287 287 286 286 286 285
289 289 289 289 288 288 287 286 286 285 285 285 284 284 284 283 283 283 282 282 282 282 282 282 283 285 287 289 288 286 285 285 285 286 286 285 285 285 285 285 285 284
289 289 289 289 289 288 287 286 286 286 285 285 284 283 283 283 283 282 282 282 282 282 283 284 286 288 289 289 288 286 285 285 285 285 285 284 284 284 284 284 283 283
Wind_Speed
35 35 34 33 33 33 32 30 30 33 34 33 31 29 29 29 31 32 31 31 30 30 31 30 30 31 32 32 31 31 31 31 31 30 29 27 25 23 21 19 17 15
35 35 35 34 34 33 31 29 30 33 35 33 30 29 29 31 32 33 32 32 32 33 32 31 31 31 32 32 32 32 32 32 32 30 28 26 24 22 20 18 17 14
36 36 35 36 35 33 31 29 30 34 36 33 29 29 30 32 33 34 34 34 34 34 33 33 32 32 32 32 33 33 33 33 31 29 26 24 22 21 19 18 16 14
36 36 36 36 34 31 30 30 32 36 36 32 28 29 31 34 35 36 37 36 36 36 35 35 34 33 33 33 33 33 32 31 30 28 26 24 22 20 19 18 16 15
36 36 36 35 33 32 32 32 34 37 35 31 29 30 33 35 37 38 39 39 38 38 37 36 35 35 34 34 33 33 32 30 29 27 26 24 22 20 19 18 16 14
36 36 36 34 33 33 34 35 36 37 34 31 30 32 35 36 38 40 41 41 40 39 38 38 36 35 34 34 33 32 31 30 29 27 25 24 23 21 19 17 15 13
37 37 36 34 33 33 34 35 36 35 31 29 30 33 35 37 39 41 42 42 41 40 39 38 37 36 35 34 33 31 30 29 28 27 25 24 23 21 19 17 15 13
37 37 36 35 34 34 35 35 34 32 29 29 31 33 35 37 39 42 42 42 42 40 39 38 37 36 35 34 32 31 30 29 28 27 25 24 23 21 20 18 16 14
37 37 36 35 35 35 36 35 33 31 29 29 32 34 35 37 40 42 43 43 41 40 39 38 37 36 34 33 32 31 30 29 27 26 25 24 22 21 20 19 17 15
37 36 35 35 35 36 36 35 33 30 30 31 32 34 35 38 40 42 43 42 41 40 39 38 37 35 34 33 31 30 29 28 27 26 24 23 22 20 19 19 17 16
37 36 35 35 35 36 36 35 33 32 31 32 33 34 36 38 40 41 42 42 41 40 39 38 37 35 34 32 31 29 28 27 26 25 23 22 21 20 19 18 17 15
36 36 35 35 35 35 35 34 34 33 32 33 34 35 36 38 40 41 42 42 41 40 39 38 36 35 34 32 31 30 28 26 25 24 23 22 21 20 18 17 16 15
36 36 35 35 34 34 34 34 33 33 33 34 35 36 37 39 40 41 41 41 41 40 39 38 37 35 34 32 31 30 28 27 25 24 24 22 21 20 19 18 17 16
36 36 35 34 34 33 33 33 33 34 34 34 35 36 38 40 41 41 41 41 41 40 39 38 37 36 34 33 32 30 28 27 25 25 24 23 21 21 20 19 18 18
34 35 34 33 33 33 33 34 34 34 34 34 35 36 38 40 41 42 42 41 40 39 38 38 37 36 35 34 33 30 28 27 26 25 24 23 23 22 22 21 21 21
33 34 34 33 33 33 33 34 33 33 33 33 34 35 37 38 39 40 40 40 40 39 38 37 37 36 35 34 32 29 28 27 26 25 24 24 24 24 23 23 23 23
32 33 33 34 34 33 33 33 33 32 32 32 32 33 34 35 36 37 37 38 38 38 38 37 36 36 34 32 30 28 27 26 25 24 25 26 25 25 24 25 26 26
32 32 32 33 33 33 33 32 32 31 31 31 32 33 34 34 35 36 36 36 36 36 36 36 36 35 33 32 30 28 27 25 23 25 26 27 26 25 25 27 29 29
31 31 31 31 31 32 31 31 31 31 32 33 34 35 35 36 36 36 36 36 35 35 35 35 35 34 33 31 29 28 25 23 24 26 27 26 25 26 28 30 32 32
30 30 30 30 30 30 31 31 32 32 32 33 33 34 35 35 35 35 35 36 36 36 36 35 34 33 32 30 29 26 23 23 25 26 25 25 26 29 32 33 34 34
29 29 29 29 29 29 30 30 31 31 31 31 32 33 34 34 34 35 35 35 35 35 35 34 33 32 31 29 27 23 21 23 25 25 25 26 30 33 35 36 36 37
28 28 28 28 28 28 28 28 29 29 29 29 29 29 30 30 30 31 31 31 32 32 32 32 31 30 29 27 23 20 21 24 25 25 27 31 34 36 37 38 38 39
28 28 27 27 28 28 27 27 28 28 28 28 27 27 27 27 28 28 28 29 29 30 30 31 30 29 26 22 20 19 22 25 26 28 31 34 35 37 38 39 40 42
27 27 27 27 28 28 28 28 27 27 27 26 26 26 26 27 27 27 26 27 28 29 29 29 27 25 21 19 19 21 24 27 28 30 33 35 37 38 40 41 43 44
25 26 26 27 27 27 27 27 26 26 25 24 24 24 24 24 24 24 24 24 24 25 24 23 22 20 19 19 21 23 26 29 30 31 33 35 37 38 39 40 42 42
24 25 26 26 26 26 25 24 24 24 23 22 22 21 21 21 21 21 21 20 20 20 20 20 20 20 21 21 23 25 28 30 31 32 34 35 36 36 37 37 38 38
Wind_Direction
215 215 215 216 215 213 210 208 211 210 206 204 204 207 209 206 204 201 200 200 200 199 197 194 191 189 189 188 189 191 191 191 189 187 185 183 182 178 176 176 175 173
215 216 215 213 211 210 211 215 218 214 206 202 203 207 209 208 205 202 201 200 199 198 196 194 191 188 187 186 187 188 187 187 185 182 181 181 178 176 174 172 171 171
216 217 215 212 210 211 215 218 219 214 206 200 202 208 211 210 207 204 202 201 199 197 194 192 190 187 186 185 184 185 185 185 183 180 179 179 176 174 172 171 171 169
215 216 214 213 214 218 219 218 217 211 204 202 207 214 215 212 208 205 203 201 199 196 193 190 188 186 186 185 185 185 185 185 182 179 179 177 175 174 174 174 172 170
215 215 214 215 218 220 219 217 214 209 205 207 214 219 218 213 209 206 203 200 198 195 192 190 188 187 187 186 187 187 186 185 183 181 180 176 175 178 178 177 176 175
215 215 216 218 220 220 220 218 212 208 209 214 219 221 219 213 209 206 202 200 197 194 192 190 188 188 188 188 188 188 188 186 184 183 182 179 177 180 182 182 182 180
215 216 217 218 219 220 220 217 212 212 216 223 225 224 219 213 208 204 202 200 196 194 192 191 190 189 189 189 189 189 189 188 187 185 184 183 182 183 185 185 186 185
216 216 216 218 218 219 218 214 214 217 222 228 228 223 218 212 207 203 201 198 196 194 192 191 191 191 190 190 191 191 190 190 190 189 188 188 187 188 189 189 190 191
215 215 216 217 217 217 216 215 219 223 226 230 227 221 216 210 206 202 200 198 196 194 193 192 192 192 192 193 194 195 194 193 194 193 192 192 193 195 195 194 194 195
215 215 216 217 216 216 216 218 222 225 227 228 224 219 214 208 204 202 200 198 196 195 194 194 194 193 194 195 196 199 199 197 197 197 197 198 199 201 201 200 200 199
214 215 216 217 217 217 218 219 220 222 224 223 219 216 212 207 203 201 199 198 197 197 196 195 196 196 196 197 198 201 203 202 202 201 201 202 204 206 205 205 206 206
213 214 216 218 219 219 219 220 221 221 220 219 217 215 211 206 203 200 199 199 198 198 198 197 197 198 198 200 201 202 204 205 206 207 206 207 207 209 210 211 211 212
212 214 217 219 220 220 221 221 222 222 220 218 216 213 210 205 202 200 200 200 200 199 199 199 199 199 201 202 204 205 205 207 209 210 210 210 211 212 213 214 215 216
212 215 219 220 221 221 221 221 221 221 219 217 214 211 209 206 203 201 200 200 201 201 200 201 201 201 202 204 206 207 207 209 212 213 213 213 215 216 217 217 219 221
212 214 217 220 220 220 219 220 219 218 216 215 213 211 209 206 204 203 201 200 201 201 201 201 202 203 204 206 208 208 209 212 214 215 216 218 219 220 220 221 224 225
212 213 214 216 218 218 217 217 216 215 213 213 212 211 209 207 205 204 203 202 201 201 201 201 202 204 207 209 210 211 212 215 216 218 220 222 224 224 224 228 230 231
211 211 210 212 215 215 215 214 212 211 211 211 210 209 208 207 205 204 204 204 203 202 202 202 203 206 208 209 211 214 216 217 219 222 224 226 227 228 231 236 238 238
209 208 207 208 211 211 211 210 209 208 208 208 208 207 207 207 206 206 206 206 205 204 203 204 205 207 209 210 213 215 217 220 224 228 229 229 231 235 240 244 244 243
207 206 205 205 206 207 207 207 206 206 208 209 209 208 207 207 206 206 206 205 206 205 205 206 207 208 210 212 214 216 218 223 230 232 233 234 238 244 248 249 248 246
205 204 203 203 203 204 205 206 206 207 208 209 208 206 205 205 206 206 206 207 207 207 207 208 208 210 211 213 215 216 220 230 235 235 236 241 247 251 253 253 252 250
202 201 200 200 201 202 203 203 203 204 205 207 206 205 206 206 206 206 206 207 208 208 208 209 209 211 213 214 214 218 228 237 237 238 243 250 254 255 255 255 254 253
199 197 197 198 198 199 199 199 201 202 204 205 205 205 206 206 206 207 207 207 207 208 208 209 211 213 213 213 217 226 236 238 238 244 252 255 257 257 257 257 256 255
197 195 194 195 196 196 197 199 201 203 204 204 203 202 204 206 208 209 210 210 209 209 209 211 212 212 211 216 227 237 238 236 240 249 255 257 258 259 258 258 258 257
196 195 194 195 196 197 199 200 201 202 204 205 205 205 207 209 210 210 211 212 212 212 212 213 211 209 214 228 239 240 237 238 243 251 255 257 258 259 259 259 259 259
195 196 196 197 197 198 199 199 199 201 203 205 206 208 209 208 207 207 208 210 213 215 215 214 214 220 231 240 242 239 238 239 244 251 254 254 256 258 259 259 260 260
195 196 197 198 198 197 197 198 198 199 200 201 202 204 205 205 206 207 209 210 213 215 217 222 230 239 245 245 243 241 240 242 247 251 252 253 256 258 259 260 262 263